Wind_Speed
3 3 3 4 3 4 5 5 5 6 6 7 7 7 7 8 8 8 8 8 8 7 7 8 8 8 8 7 7 7 6 6 6 6 6 7 6 6 6 5 5 6 5
4 3 4 5 5 5 6 6 7 7 7 7 8 8 9 9 9 9 9 9 9 9 9 8 8 7 7 7 7 8 7 7 7 7 7 6 6 6 6 6 6 6 6
5 5 5 6 6 6 7 7 8 8 8 8 9 9 9 9 10 10 10 9 9 10 10 9 9 8 7 8 8 8 8 8 8 8 8 7 7 7 7 7 7 7 7
6 6 6 7 7 8 8 8 8 9 9 9 9 10 10 10 10 11 11 10 11 11 10 9 9 9 9 8 8 8 8 8 8 8 8 8 8 8 8 8 8 8 7
6 6 7 7 8 8 9 9 9 9 10 10 10 10 10 10 10 11 11 11 11 12 11 10 10 10 9 9 9 9 9 9 8 8 8 8 8 8 9 9 9 8 8
6 7 7 7 8 9 9 10 10 10 10 10 10 10 10 10 10 10 10 11 11 10 10 10 10 10 10 9 9 9 9 9 9 9 9 9 8 8 9 9 10 10 9
7 8 7 8 8 8 9 9 9 10 9 10 10 11 10 10 10 10 10 11 10 10 10 10 10 10 10 10 10 10 10 10 10 10 10 10 9 9 9 9 10 10 10
7 7 7 7 7 8 8 8 8 9 9 9 9 9 9 9 9 10 10 11 11 10 10 10 10 10 10 10 10 10 10 11 10 10 10 10 10 10 10 10 10 10 10
7 7 7 7 7 8 8 8 8 8 8 9 9 9 9 9 9 9 9 10 10 10 10 10 10 10 10 10 10 10 11 10 10 10 10 10 10 10 10 10 11 10 10
7 7 7 7 8 8 8 8 8 8 8 8 9 8 8 8 8 9 9 9 9 10 10 10 10 10 10 9 9 10 10 10 10 10 10 10 10 10 10 10 10 10 10
7 7 7 6 7 8 8 8 8 8 8 8 9 8 8 8 8 8 9 9 9 10 10 10 11 11 10 9 10 10 10 10 10 10 10 10 10 10 10 10 10 10 10
7 7 7 6 7 7 7 8 8 8 8 8 8 8 8 8 8 8 9 9 9 10 10 10 10 10 10 10 10 10 9 9 10 10 10 10 10 10 10 10 10 10 10
8 8 7 7 8 7 6 7 8 8 8 8 8 8 7 7 7 7 8 9 9 9 9 9 9 9 10 10 10 9 9 9 9 9 9 10 10 10 10 10 10 10 11
8 8 8 7 7 8 7 7 7 7 8 8 8 8 8 7 7 7 8 8 8 8 8 8 8 8 8 9 9 9 9 8 8 8 9 9 9 10 9 9 9 9 10
8 8 7 7 7 7 7 7 8 7 7 8 8 8 8 7 7 7 8 8 8 8 7 7 7 7 8 8 9 9 8 8 7 7 8 8 8 8 9 8 9 9 9
8 8 8 8 7 7 8 8 8 7 7 7 7 7 7 7 7 7 7 8 7 7 7 7 7 7 7 8 8 8 8 8 7 7 7 7 7 8 7 7 8 8 8
8 8 8 8 8 8 8 8 8 8 7 7 7 7 7 7 6 6 7 7 7 7 6 6 7 7 7 7 7 7 7 7 7 7 7 7 7 7 6 6 7 7 7
7 8 7 8 8 8 8 9 8 8 7 6 6 7 7 7 6 6 6 7 6 7 7 7 7 8 7 7 7 8 7 8 8 7 7 7 7 7 6 6 7 7 7
7 7 7 8 8 8 8 9 8 8 7 6 6 6 6 7 6 6 6 7 7 8 8 8 8 8 8 7 7 7 7 8 7 7 7 7 7 7 7 6 7 7 7
7 8 8 8 8 9 9 8 7 7 6 6 6 6 6 6 6 6 6 6 7 7 7 7 8 7 7 7 6 6 7 7 7 7 7 7 7 6 6 6 7 7 7
8 8 8 9 9 9 9 8 7 7 6 6 6 6 7 7 7 7 7 7 7 7 7 7 7 7 7 7 7 6 7 7 6 7 7 6 6 6 6 7 7 7 7
9 9 9 9 9 9 9 8 8 7 7 5 5 6 6 6 6 6 6 6 7 7 7 7 7 7 7 7 7 7 6 6 6 7 7 6 6 7 7 7 8 8 7
9 9 9 9 9 8 8 8 8 8 7 6 6 6 6 5 6 6 6 7 7 7 7 7 7 7 7 7 6 7 6 6 7 6 6 7 7 7 7 7 7 6 6
10 10 10 10 10 9 9 9 8 8 7 7 6 6 6 6 6 6 7 7 7 6 7 7 7 6 6 6 6 6 6 7 7 7 7 7 7 7 8 8 7 6 6
11 11 11 11 11 10 10 10 9 8 8 7 7 6 6 6 6 7 7 7 8 8 7 7 6 6 6 6 6 6 6 7 7 7 7 7 7 7 7 7 7 6 6
12 12 12 12 12 12 11 10 10 9 9 9 8 8 8 7 7 8 8 9 9 9 8 7 7 7 7 7 7 7 7 7 7 8 8 7 7 7 7 7 6 6 6
Wind_Direction
299 293 282 280 279 279 285 286 286 281 278 273 268 263 262 263 265 266 267 261 260 259 263 261 261 257 259 262 259 252 254 261 264 263 266 257 261 262 263 258 252 255 251
294 290 284 281 279 278 275 277 281 280 277 273 268 265 263 262 263 264 265 262 259 259 262 258 256 256 259 258 259 256 256 259 266 268 269 262 260 260 262 258 256 256 256
294 290 288 284 281 278 274 272 274 277 276 274 271 269 265 262 262 261 264 263 257 257 260 255 253 253 256 257 259 257 257 262 265 267 267 264 263 262 261 262 259 257 257
296 291 289 288 286 281 279 275 273 275 275 273 274 273 268 264 263 263 263 262 257 257 254 255 256 256 255 259 260 257 258 264 269 269 269 265 262 262 259 260 259 260 257
298 293 291 288 288 287 283 280 278 274 274 274 275 274 270 267 266 265 264 262 259 261 256 257 257 255 255 259 263 260 258 261 266 267 268 268 264 263 260 256 256 255 258
300 297 292 289 287 285 284 283 283 276 273 273 275 275 274 269 267 266 264 261 258 260 261 262 259 258 259 261 263 264 260 258 261 265 267 265 262 262 260 257 257 257 258
304 300 293 288 288 287 285 286 285 279 274 275 276 278 277 273 270 267 265 258 256 261 263 261 262 263 261 262 263 263 265 265 265 267 266 263 259 259 262 264 260 261 259
311 307 297 290 287 291 289 287 286 284 279 278 278 279 276 274 271 267 265 258 257 261 262 261 262 265 266 267 265 265 265 267 268 267 265 261 259 259 261 264 264 262 261
314 312 304 295 289 289 289 288 285 284 283 280 278 278 275 270 270 269 267 261 261 262 263 261 261 264 267 268 268 267 267 266 265 268 266 265 261 260 261 264 265 264 265
313 314 308 300 288 287 290 286 283 284 283 281 279 276 273 272 269 269 267 263 262 262 263 263 264 262 265 265 267 268 269 268 269 269 267 265 262 260 261 264 265 266 267
311 308 310 305 299 295 290 287 287 286 285 282 279 278 276 278 272 268 266 264 265 264 264 266 264 262 262 264 267 269 271 269 271 269 268 268 264 261 262 262 264 269 270
311 304 304 305 303 302 298 294 290 288 286 283 281 281 283 283 275 270 268 267 268 267 266 266 266 263 262 263 268 270 273 273 271 270 271 269 266 264 261 264 267 271 271
314 307 303 300 302 305 305 305 300 292 289 285 281 279 282 283 277 271 267 269 272 269 264 263 267 267 266 265 268 273 271 271 271 271 272 270 269 270 265 265 271 274 273
318 309 306 300 301 304 299 302 306 297 291 285 280 280 279 276 273 269 268 270 271 269 264 262 267 267 266 268 271 275 271 271 272 273 274 274 274 274 270 268 269 271 273
319 310 307 306 304 302 306 304 305 301 294 285 282 279 282 276 269 268 269 270 268 264 261 260 264 263 264 270 273 272 270 273 271 273 278 281 280 275 270 269 268 269 274
317 308 307 303 308 308 313 310 306 302 295 289 282 277 277 275 272 271 270 268 267 264 256 258 261 262 264 267 269 267 270 272 278 279 279 280 281 279 276 270 268 271 276
317 311 311 306 305 305 308 309 306 303 298 291 283 274 270 269 268 271 267 264 262 258 255 259 263 267 268 264 262 266 268 271 275 277 275 278 283 280 278 275 268 272 273
319 317 319 317 310 308 308 308 307 304 300 291 287 276 268 262 261 268 262 260 259 260 263 263 266 270 271 263 261 264 267 273 274 276 276 277 275 273 274 274 275 273 275
318 316 319 319 319 316 314 309 306 300 298 295 295 289 272 259 259 267 271 261 255 260 264 265 269 272 272 264 263 262 263 269 273 275 276 275 271 271 269 264 268 271 269
312 312 314 315 319 322 320 319 312 304 297 294 292 284 278 264 261 266 268 266 260 259 264 265 269 270 268 265 266 268 270 272 273 275 280 277 271 267 263 260 263 265 269
314 313 311 311 312 316 320 318 316 307 300 296 293 287 280 269 262 267 267 265 260 261 266 268 271 269 267 264 264 265 268 268 268 278 283 279 272 263 259 263 264 266 271
307 310 311 312 312 313 314 316 317 311 305 297 295 294 282 268 261 267 266 263 260 266 269 273 273 270 268 264 261 261 263 262 258 270 278 284 274 263 262 269 271 272 271
303 303 306 308 310 309 306 308 312 310 308 295 295 291 281 272 263 264 267 262 260 264 269 272 270 272 267 263 264 264 263 265 267 266 274 277 273 271 269 273 273 274 276
299 297 300 303 304 302 302 301 301 303 303 301 296 296 281 274 271 267 264 260 261 263 266 268 267 268 265 262 264 266 266 270 267 263 266 269 269 269 271 275 273 275 281
296 295 296 297 298 299 298 297 295 293 293 295 296 293 289 274 269 266 261 261 261 261 260 263 260 262 262 262 267 270 272 273 269 262 261 263 264 264 266 267 270 275 277
293 293 296 296 296 296 295 293 290 287 285 286 285 284 283 274 265 264 261 261 263 261 258 259 258 260 261 263 269 271 273 275 273 266 261 259 258 261 261 260 266 272 275
Height
5885 5884 5884 5883 5883 5883 5883 5882 5882 5882 5882 5882 5882 5882 5882 5882 5882 5882 5881 5881 5881 5881 5881 5881 5880 5880 5880 5880 5880 5880 5880 5880 5879 5879 5879 5878 5878 5878 5877 5877 5877 5877 5877
5884 5883 5883 5882 5882 5882 5882 5882 5881 5881 5881 5881 5881 5881 5881 5881 5881 5880 5880 5880 5880 5880 5879 5879 5879 5879 5879 5879 5879 5879 5879 5878 5878 5878 5877 5877 5877 5877 5877 5876 5877 5876 5877
5883 5882 5882 5881 5881 5881 5881 5881 5880 5880 5880 5880 5880 5879 5879 5879 5879 5879 5879 5878 5878 5878 5878 5878 5878 5878 5877 5877 5877 5877 5877 5877 5877 5876 5876 5876 5876 5876 5875 5876 5875 5875 5875
5882 5881 5880 5880 5880 5879 5879 5879 5879 5879 5878 5878 5878 5878 5877 5877 5877 5877 5877 5877 5876 5876 5876 5876 5876 5876 5876 5876 5876 5876 5876 5875 5875 5875 5874 5874 5874 5874 5874 5874 5874 5874 5874
5880 5880 5879 5879 5878 5878 5878 5877 5877 5877 5877 5876 5876 5876 5876 5875 5875 5875 5875 5875 5875 5875 5874 5874 5874 5874 5874 5874 5874 5874 5874 5874 5874 5873 5873 5873 5873 5873 5873 5872 5872 5873 5873
5879 5878 5878 5877 5877 5876 5876 5875 5875 5875 5874 5874 5874 5874 5874 5873 5873 5873 5873 5873 5873 5873 5873 5873 5873 5873 5873 5872 5872 5872 5872 5872 5872 5872 5871 5871 5871 5871 5871 5871 5871 5871 5871
5877 5877 5876 5875 5875 5874 5874 5874 5873 5873 5872 5872 5872 5872 5871 5871 5871 5871 5871 5871 5871 5871 5871 5871 5871 5871 5871 5871 5871 5871 5871 5870 5870 5870 5870 5870 5869 5869 5869 5869 5869 5869 5869
5876 5875 5874 5874 5873 5872 5872 5872 5871 5871 5871 5870 5870 5870 5869 5869 5869 5869 5869 5869 5869 5869 5869 5869 5869 5869 5869 5869 5869 5868 5868 5868 5868 5868 5868 5868 5868 5867 5867 5867 5867 5867 5867
5874 5873 5873 5872 5871 5871 5870 5870 5869 5869 5869 5868 5868 5867 5867 5867 5867 5867 5866 5867 5867 5867 5867 5867 5867 5867 5867 5867 5866 5866 5866 5866 5866 5866 5866 5866 5866 5865 5865 5865 5865 5865 5865
5873 5872 5871 5870 5870 5869 5868 5868 5867 5867 5867 5866 5866 5865 5865 5865 5865 5864 5864 5864 5864 5864 5864 5865 5865 5865 5864 5864 5864 5864 5864 5864 5864 5864 5864 5864 5864 5863 5863 5863 5863 5863 5863
5871 5870 5870 5869 5868 5867 5866 5866 5865 5865 5864 5864 5863 5863 5863 5862 5862 5862 5862 5862 5862 5862 5862 5862 5862 5862 5862 5862 5862 5862 5862 5862 5862 5862 5862 5862 5861 5861 5861 5861 5861 5861 5861
5869 5868 5868 5867 5866 5865 5864 5864 5863 5863 5862 5862 5861 5861 5861 5860 5860 5860 5860 5860 5860 5860 5860 5860 5860 5860 5860 5860 5860 5860 5860 5860 5859 5860 5860 5860 5859 5859 5859 5859 5859 5859 5858
5868 5866 5866 5865 5864 5863 5863 5862 5861 5861 5860 5860 5859 5859 5858 5858 5858 5858 5858 5858 5858 5858 5858 5858 5858 5858 5858 5858 5858 5858 5858 5857 5857 5857 5857 5857 5857 5857 5856 5856 5856 5856 5856
5866 5865 5864 5863 5862 5862 5861 5860 5860 5859 5858 5858 5857 5857 5856 5856 5856 5856 5856 5856 5856 5856 5856 5856 5856 5856 5856 5856 5856 5856 5856 5855 5855 5855 5855 5855 5855 5854 5854 5854 5854 5854 5853
5864 5863 5863 5862 5861 5860 5859 5858 5858 5857 5856 5855 5855 5855 5854 5854 5854 5854 5854 5854 5854 5854 5854 5854 5854 5854 5854 5854 5854 5854 5854 5854 5853 5853 5853 5853 5852 5852 5852 5852 5852 5851 5851
5863 5862 5861 5860 5859 5858 5857 5857 5856 5855 5854 5853 5853 5853 5853 5852 5852 5852 5852 5852 5852 5852 5852 5852 5852 5852 5852 5852 5852 5852 5852 5852 5852 5851 5851 5851 5851 5850 5850 5849 5849 5849 5849
5861 5860 5859 5858 5857 5857 5856 5855 5854 5853 5852 5851 5851 5851 5850 5850 5850 5850 5850 5850 5850 5850 5850 5850 5850 5850 5850 5850 5850 5850 5850 5850 5850 5850 5849 5849 5849 5848 5848 5847 5847 5847 5847
5860 5859 5858 5857 5856 5855 5854 5853 5852 5851 5850 5849 5849 5849 5848 5848 5849 5849 5849 5849 5849 5849 5848 5849 5849 5849 5849 5849 5849 5848 5848 5848 5848 5848 5848 5847 5847 5847 5846 5846 5845 5845 5845
5859 5858 5857 5856 5854 5853 5852 5851 5850 5849 5848 5848 5847 5847 5846 5846 5847 5847 5847 5847 5847 5847 5847 5847 5847 5847 5847 5847 5847 5847 5847 5846 5846 5846 5846 5845 5845 5845 5845 5844 5844 5844 5844
5857 5856 5855 5854 5853 5852 5851 5849 5848 5847 5847 5846 5845 5845 5845 5845 5845 5845 5845 5845 5846 5845 5845 5845 5845 5845 5845 5845 5845 5845 5845 5845 5845 5844 5844 5844 5844 5843 5843 5843 5843 5842 5842
5856 5855 5854 5853 5851 5850 5849 5848 5847 5846 5845 5844 5844 5843 5843 5843 5843 5843 5843 5844 5844 5844 5844 5844 5843 5843 5843 5843 5844 5844 5843 5843 5843 5843 5843 5842 5842 5842 5842 5841 5841 5841 5840
5854 5853 5852 5851 5849 5848 5847 5846 5845 5844 5843 5842 5842 5841 5841 5841 5841 5842 5842 5842 5842 5842 5842 5842 5842 5841 5841 5842 5842 5842 5842 5842 5841 5841 5841 5841 5840 5840 5840 5840 5839 5839 5839
5852 5851 5850 5849 5848 5847 5846 5845 5844 5842 5842 5841 5841 5840 5839 5839 5840 5840 5840 5840 5840 5840 5840 5840 5840 5840 5840 5840 5840 5840 5840 5840 5840 5840 5839 5839 5839 5839 5838 5838 5838 5837 5837
5850 5848 5848 5847 5846 5845 5844 5843 5842 5841 5840 5839 5839 5838 5838 5838 5838 5838 5838 5838 5838 5838 5838 5838 5838 5838 5838 5838 5838 5838 5838 5838 5838 5838 5838 5838 5837 5837 5837 5837 5836 5836 5836
5847 5846 5845 5844 5843 5842 5841 5840 5840 5839 5838 5837 5837 5836 5836 5836 5836 5836 5836 5836 5836 5836 5836 5836 5836 5836 5836 5836 5836 5836 5836 5836 5836 5836 5836 5836 5836 5836 5835 5835 5835 5834 5834
5844 5843 5842 5841 5840 5839 5838 5837 5837 5836 5836 5835 5835 5835 5834 5834 5834 5833 5833 5834 5834 5834 5834 5834 5834 5834 5834 5835 5834 5834 5834 5834 5834 5834 5834 5834 5834 5834 5834 5833 5833 5833 5832